| time (UTC) | temp C | wind direction | speed KPH | gust KPH | rain 1hr cm | rain 24hr cm | rain mn cm | humidity % | barometer mb |
| 20260507041428 | 7 | 5 | 1.6 | 4.8 | 0.00 | 0.71 | 0.00 | 75 | 1012.7 |
| 20260507041258 | 7 | 359 | 1.6 | 4.8 | 0.00 | 0.71 | 0.00 | 75 | 1012.7 |
| 20260507040927 | 7 | 352 | 1.6 | 4.8 | 0.00 | 0.74 | 0.00 | 75 | 1012.7 |
| 20260507040426 | 7 | 339 | 0.0 | 6.4 | 0.00 | 0.74 | 0.00 | 76 | 1012.6 |
| 20260507040257 | 7 | 346 | 0.0 | 6.4 | 0.00 | 0.76 | 0.00 | 76 | 1012.7 |
| 20260507040158 | 7 | 350 | 0.0 | 6.4 | 0.00 | 0.76 | 0.00 | 76 | 1012.7 |
| 20260507035426 | 7 | 337 | 0.0 | 6.4 | 0.00 | 0.79 | 0.00 | 76 | 1012.7 |
| 20260507035258 | 7 | 320 | 1.6 | 6.4 | 0.00 | 0.79 | 0.00 | 76 | 1012.5 |
| 20260507034926 | 7 | 290 | 1.6 | 6.4 | 0.00 | 0.79 | 0.00 | 75 | 1012.7 |
| 20260507034427 | 7 | 280 | 1.6 | 8.0 | 0.00 | 0.79 | 0.00 | 75 | 1012.8 |
| 20260507034258 | 7 | 285 | 1.6 | 9.7 | 0.00 | 0.79 | 0.00 | 75 | 1012.8 |
| 20260507033928 | 7 | 292 | 1.6 | 9.7 | 0.00 | 0.79 | 0.00 | 76 | 1013.0 |
| 20260507033427 | 7 | 288 | 1.6 | 9.7 | 0.00 | 0.79 | 0.00 | 76 | 1013.0 |
| 20260507033258 | 7 | 280 | 3.2 | 9.7 | 0.00 | 0.79 | 0.00 | 76 | 1013.0 |
| 20260507032927 | 7 | 273 | 1.6 | 9.7 | 0.00 | 0.79 | 0.00 | 75 | 1013.0 |
| 20260507032428 | 7 | 282 | 0.0 | 9.7 | 0.00 | 0.79 | 0.00 | 77 | 1013.0 |
| 20260507032258 | 7 | 285 | 0.0 | 4.8 | 0.00 | 0.79 | 0.00 | 77 | 1013.0 |
| 20260507031927 | 7 | 286 | 0.0 | 4.8 | 0.00 | 0.79 | 0.00 | 77 | 1013.1 |
| 20260507031427 | 7 | 276 | 0.0 | 4.8 | 0.00 | 0.79 | 0.00 | 78 | 1013.3 |
| 20260507031259 | 7 | 285 | 0.0 | 4.8 | 0.00 | 0.79 | 0.00 | 79 | 1013.2 |
| 20260507030925 | 6 | 309 | 0.0 | 6.4 | 0.00 | 0.79 | 0.00 | 80 | 1013.1 |
| 20260507030658 | 7 | 336 | 0.0 | 6.4 | 0.00 | 0.79 | 0.00 | 80 | 1013.1 |
| 20260507030256 | 7 | 332 | 0.0 | 6.4 | 0.00 | 0.79 | 0.00 | 80 | 1013.1 |
| 20260507025926 | 6 | 313 | 0.0 | 6.4 | 0.00 | 0.81 | 0.00 | 80 | 1013.2 |
| 20260507025426 | 6 | 261 | 0.0 | 6.4 | 0.00 | 0.81 | 0.00 | 81 | 1013.3 |
| 20260507025257 | 6 | 244 | 0.0 | 6.4 | 0.00 | 0.81 | 0.00 | 81 | 1013.3 |
| 20260507024926 | 6 | 220 | 0.0 | 1.6 | 0.00 | 0.81 | 0.00 | 82 | 1013.4 |
| 20260507024426 | 6 | 217 | 0.0 | 0.0 | 0.00 | 0.81 | 0.00 | 82 | 1013.3 |
| 20260507024257 | 6 | 217 | 0.0 | 0.0 | 0.00 | 0.81 | 0.00 | 82 | 1013.3 |
| 20260507023926 | 7 | 218 | 0.0 | 0.0 | 0.00 | 0.81 | 0.00 | 82 | 1013.5 |
| 20260507023424 | 7 | 223 | 0.0 | 0.0 | 0.00 | 0.81 | 0.00 | 81 | 1013.4 |
| 20260507023257 | 7 | 226 | 0.0 | 0.0 | 0.00 | 0.81 | 0.00 | 81 | 1013.4 |
| 20260507022922 | 7 | 236 | 0.0 | 3.2 | 0.00 | 0.81 | 0.00 | 82 | 1013.5 |
| 20260507022422 | 7 | 243 | 0.0 | 3.2 | 0.00 | 0.81 | 0.00 | 82 | 1013.4 |
| 20260507022257 | 7 | 243 | 0.0 | 3.2 | 0.00 | 0.81 | 0.00 | 82 | 1013.5 |
| 20260507021927 | 7 | 242 | 0.0 | 3.2 | 0.00 | 0.81 | 0.00 | 81 | 1013.5 |
| 20260507021257 | 7 | 350 | 0.0 | 3.2 | 0.00 | 0.81 | 0.00 | 80 | 1013.5 |
| 20260507020921 | 7 | 34 | 0.0 | 3.2 | 0.00 | 0.81 | 0.00 | 81 | 1013.4 |
| 20260507020421 | 7 | 46 | 0.0 | 3.2 | 0.00 | 0.81 | 0.00 | 81 | 1013.4 |
| 20260507020257 | 7 | 31 | 0.0 | 3.2 | 0.00 | 0.81 | 0.00 | 81 | 1013.3 |
| 20260507015920 | 7 | 313 | 0.0 | 3.2 | 0.00 | 0.81 | 0.00 | 80 | 1013.2 |
| 20260507015422 | 7 | 51 | 0.0 | 4.8 | 0.00 | 0.81 | 0.00 | 80 | 1013.2 |
| 20260507015256 | 7 | 60 | 1.6 | 4.8 | 0.00 | 0.81 | 0.00 | 80 | 1013.3 |
| 20260507014921 | 7 | 73 | 1.6 | 4.8 | 0.00 | 0.84 | 0.00 | 80 | 1013.2 |
| 20260507014420 | 7 | 232 | 1.6 | 4.8 | 0.00 | 0.84 | 0.00 | 79 | 1013.3 |
| 20260507014255 | 7 | 229 | 1.6 | 4.8 | 0.00 | 0.84 | 0.00 | 78 | 1013.3 |
| 20260507013917 | 8 | 143 | 1.6 | 4.8 | 0.00 | 0.86 | 0.00 | 75 | 1013.3 |
| 20260507013417 | 8 | 78 | 1.6 | 3.2 | 0.00 | 0.86 | 0.00 | 74 | 1013.3 |
| 20260507013252 | 8 | 70 | 1.6 | 3.2 | 0.00 | 0.86 | 0.00 | 74 | 1013.3 |
| 20260507012919 | 8 | 45 | 1.6 | 3.2 | 0.00 | 0.86 | 0.00 | 74 | 1013.2 |
| 20260507012417 | 8 | 310 | 0.0 | 3.2 | 0.00 | 0.86 | 0.00 | 74 | 1013.2 |
| 20260507012252 | 8 | 303 | 0.0 | 3.2 | 0.00 | 0.86 | 0.00 | 74 | 1013.3 |
| 20260507011917 | 8 | 311 | 0.0 | 3.2 | 0.00 | 0.86 | 0.00 | 72 | 1013.2 |
| 20260507011415 | 8 | 1 | 0.0 | 3.2 | 0.00 | 0.86 | 0.00 | 71 | 1013.1 |
| 20260507011253 | 8 | 6 | 0.0 | 3.2 | 0.00 | 0.86 | 0.00 | 70 | 1013.1 |
| 20260507010915 | 8 | 2 | 0.0 | 3.2 | 0.00 | 0.86 | 0.00 | 70 | 1013.1 |
| 20260507010417 | 8 | 310 | 0.0 | 4.8 | 0.00 | 0.86 | 0.00 | 70 | 1013.0 |
| 20260507010252 | 8 | 296 | 0.0 | 4.8 | 0.00 | 0.86 | 0.00 | 70 | 1013.1 |
| 20260507005916 | 8 | 280 | 0.0 | 4.8 | 0.00 | 0.86 | 0.00 | 70 | 1013.0 |
| 20260507005433 | 9 | 355 | 0.0 | 4.8 | 0.00 | 0.86 | 0.00 | 68 | 1013.0 |
| 20260507005428 | 9 | 286 | 0.0 | 4.8 | 0.00 | 0.86 | 0.00 | 69 | 1013.0 |
| 20260507005412 | 9 | 302 | 0.0 | 4.8 | 0.00 | 0.86 | 0.00 | 69 | 1013.1 |
| 20260507004415 | 9 | 13 | 0.0 | 3.2 | 0.00 | 0.86 | 0.00 | 67 | 1013.0 |
| 20260507004250 | 9 | 10 | 0.0 | 3.2 | 0.00 | 0.86 | 0.00 | 68 | 1012.9 |
| 20260507003915 | 9 | 349 | 0.0 | 3.2 | 0.00 | 0.86 | 0.00 | 68 | 1013.0 |
| 20260507003417 | 9 | 309 | 0.0 | 3.2 | 0.00 | 0.86 | 0.00 | 68 | 1013.0 |
| 20260507003249 | 9 | 302 | 0.0 | 4.8 | 0.00 | 0.86 | 0.00 | 68 | 1013.0 |
| 20260507002915 | 9 | 307 | 0.0 | 4.8 | 0.00 | 0.86 | 0.00 | 69 | 1013.0 |
| 20260507002416 | 9 | 304 | 0.0 | 6.4 | 0.00 | 0.89 | 0.00 | 69 | 1013.0 |
| 20260507002248 | 9 | 299 | 0.0 | 6.4 | 0.00 | 0.89 | 0.00 | 68 | 1013.1 |
| 20260507001916 | 10 | 289 | 1.6 | 6.4 | 0.00 | 0.89 | 0.00 | 67 | 1013.0 |
| 20260507001415 | 10 | 286 | 1.6 | 6.4 | 0.00 | 0.89 | 0.00 | 65 | 1013.0 |
| 20260507001247 | 10 | 298 | 1.6 | 6.4 | 0.00 | 0.89 | 0.00 | 64 | 1013.0 |
| 20260507000916 | 10 | 308 | 1.6 | 6.4 | 0.00 | 0.89 | 0.00 | 63 | 1013.1 |
| 20260507000416 | 10 | 345 | 1.6 | 8.0 | 0.00 | 0.89 | 0.00 | 63 | 1013.1 |
| 20260507000247 | 10 | 343 | 1.6 | 8.0 | 0.00 | 0.89 | 0.00 | 63 | 1013.0 |
| 20260506235917 | 10 | 339 | 1.6 | 8.0 | 0.00 | 0.89 | 0.00 | 63 | 1013.0 |
| 20260506235417 | 10 | 345 | 1.6 | 8.0 | 0.00 | 0.89 | 0.00 | 64 | 1013.0 |
| 20260506235248 | 10 | 346 | 1.6 | 8.0 | 0.00 | 0.89 | 0.00 | 64 | 1013.0 |
| 20260506234918 | 10 | 10 | 1.6 | 8.0 | 0.00 | 0.89 | 0.00 | 63 | 1013.1 |
| 20260506234415 | 10 | 6 | 0.0 | 3.2 | 0.00 | 0.89 | 0.00 | 64 | 1013.0 |
| 20260506234246 | 10 | 8 | 0.0 | 3.2 | 0.00 | 0.89 | 0.00 | 65 | 1013.0 |
| 20260506233915 | 10 | 2 | 0.0 | 3.2 | 0.00 | 0.89 | 0.00 | 66 | 1012.9 |
| 20260506233416 | 10 | 13 | 0.0 | 3.2 | 0.00 | 0.89 | 0.00 | 67 | 1012.9 |
| 20260506233245 | 10 | 12 | 1.6 | 3.2 | 0.00 | 0.89 | 0.00 | 67 | 1012.9 |
| 20260506232916 | 9 | 13 | 1.6 | 3.2 | 0.00 | 0.89 | 0.00 | 69 | 1013.0 |
| 20260506232416 | 9 | 6 | 0.0 | 3.2 | 0.00 | 0.89 | 0.00 | 70 | 1013.0 |
| 20260506232245 | 9 | 6 | 0.0 | 3.2 | 0.00 | 0.89 | 0.00 | 70 | 1013.0 |
| 20260506231916 | 9 | 8 | 0.0 | 1.6 | 0.00 | 0.89 | 0.00 | 70 | 1012.9 |
| 20260506231416 | 9 | 15 | 0.0 | 3.2 | 0.00 | 0.89 | 0.00 | 70 | 1013.2 |
| 20260506231245 | 9 | 15 | 0.0 | 3.2 | 0.00 | 0.89 | 0.00 | 70 | 1013.0 |
| 20260506230915 | 9 | 353 | 0.0 | 3.2 | 0.00 | 0.89 | 0.00 | 70 | 1013.1 |
| 20260506230416 | 10 | 333 | 0.0 | 3.2 | 0.00 | 0.89 | 0.00 | 70 | 1013.0 |
| 20260506230242 | 10 | 332 | 1.6 | 3.2 | 0.00 | 0.89 | 0.00 | 70 | 1013.0 |
| 20260506225918 | 10 | 0 | 1.6 | 3.2 | 0.00 | 0.89 | 0.00 | 69 | 1013.2 |
| 20260506225414 | 10 | 354 | 0.0 | 3.2 | 0.00 | 0.89 | 0.00 | 68 | 1013.0 |
| 20260506225244 | 10 | 343 | 0.0 | 3.2 | 0.00 | 0.89 | 0.00 | 68 | 1013.1 |
| 20260506225144 | 10 | 313 | 0.0 | 6.4 | 0.00 | 0.89 | 0.00 | 68 | 1013.1 |
| 20260506224645 | 10 | 316 | 0.0 | 6.4 | 0.00 | 0.89 | 0.00 | 67 | 1013.1 |
| 20260506224239 | 10 | 311 | 0.0 | 6.4 | 0.00 | 0.89 | 0.00 | 67 | 1013.2 |
| 20260506224144 | 10 | 308 | 0.0 | 6.4 | 0.00 | 0.89 | 0.00 | 66 | 1013.2 |
| 20260506223417 | 10 | 312 | 0.0 | 6.4 | 0.00 | 0.89 | 0.00 | 66 | 1013.2 |
| 20260506223239 | 10 | 333 | 0.0 | 6.4 | 0.00 | 0.89 | 0.00 | 65 | 1013.1 |
| 20260506222910 | 10 | 356 | 1.6 | 3.2 | 0.00 | 0.89 | 0.00 | 68 | 1013.0 |
| 20260506222411 | 10 | 352 | 1.6 | 3.2 | 0.00 | 0.89 | 0.00 | 71 | 1013.0 |
| 20260506222237 | 10 | 347 | 0.0 | 1.6 | 0.00 | 0.89 | 0.00 | 70 | 1012.9 |
| 20260506221910 | 10 | 339 | 0.0 | 1.6 | 0.00 | 0.89 | 0.00 | 70 | 1013.0 |
| 20260506221409 | 10 | 345 | 0.0 | 1.6 | 0.00 | 0.89 | 0.00 | 69 | 1013.1 |
| 20260506221236 | 10 | 350 | 0.0 | 1.6 | 0.00 | 0.89 | 0.00 | 69 | 1013.1 |
| 20260506220910 | 10 | 357 | 0.0 | 3.2 | 0.00 | 0.89 | 0.00 | 67 | 1013.0 |
| 20260506220410 | 10 | 358 | 0.0 | 4.8 | 0.00 | 0.89 | 0.00 | 67 | 1013.0 |
| 20260506220237 | 10 | 356 | 0.0 | 4.8 | 0.00 | 0.89 | 0.00 | 66 | 1013.0 |
| 20260506215907 | 11 | 359 | 0.0 | 4.8 | 0.00 | 0.89 | 0.89 | 66 | 1013.0 |
| 20260506215408 | 11 | 29 | 1.6 | 4.8 | 0.00 | 0.89 | 0.89 | 65 | 1013.0 |
| 20260506215237 | 11 | 45 | 1.6 | 4.8 | 0.00 | 0.89 | 0.89 | 65 | 1013.0 |
| 20260506214908 | 11 | 90 | 1.6 | 4.8 | 0.00 | 0.89 | 0.89 | 68 | 1013.0 |
| 20260506214409 | 11 | 218 | 0.0 | 3.2 | 0.00 | 0.89 | 0.89 | 67 | 1012.9 |
| 20260506214237 | 11 | 234 | 0.0 | 3.2 | 0.00 | 0.89 | 0.89 | 67 | 1012.9 |
| 20260506213911 | 11 | 320 | 0.0 | 4.8 | 0.00 | 0.89 | 0.89 | 60 | 1013.1 |
| 20260506213907 | 11 | 295 | 0.0 | 3.2 | 0.00 | 0.89 | 0.89 | 65 | 1013.0 |
| 20260506213237 | 11 | 306 | 1.6 | 4.8 | 0.00 | 0.89 | 0.89 | 60 | 1013.0 |
| 20260506212906 | 11 | 291 | 1.6 | 4.8 | 0.00 | 0.89 | 0.89 | 62 | 1013.0 |
| 20260506212635 | 12 | 329 | 1.6 | 4.8 | 0.00 | 0.89 | 0.89 | 62 | 1012.9 |
| 20260506212237 | 12 | 345 | 1.6 | 4.8 | 0.00 | 0.89 | 0.89 | 61 | 1013.0 |
| 20260506211906 | 11 | 13 | 1.6 | 4.8 | 0.00 | 0.89 | 0.89 | 59 | 1013.0 |
| 20260506211637 | 11 | 31 | 0.0 | 4.8 | 0.00 | 0.89 | 0.89 | 63 | 1013.0 |
| 20260506211238 | 11 | 34 | 0.0 | 4.8 | 0.00 | 0.89 | 0.89 | 65 | 1012.9 |
| 20260506210909 | 11 | 33 | 0.0 | 4.8 | 0.00 | 0.89 | 0.89 | 64 | 1012.9 |
| 20260506210407 | 12 | 33 | 1.6 | 4.8 | 0.00 | 0.89 | 0.89 | 63 | 1013.0 |
| 20260506210238 | 12 | 34 | 1.6 | 4.8 | 0.00 | 0.89 | 0.89 | 62 | 1013.0 |
| 20260506210137 | 12 | 30 | 1.6 | 4.8 | 0.00 | 0.89 | 0.89 | 61 | 1013.0 |
| 20260506205406 | 12 | 19 | 1.6 | 4.8 | 0.00 | 0.89 | 0.89 | 61 | 1013.0 |
| 20260506205238 | 12 | 13 | 1.6 | 4.8 | 0.00 | 0.89 | 0.89 | 60 | 1013.0 |
| 20260506204905 | 12 | 9 | 1.6 | 4.8 | 0.00 | 0.89 | 0.89 | 58 | 1012.9 |
| 20260506204406 | 12 | 17 | 1.6 | 4.8 | 0.00 | 0.89 | 0.89 | 56 | 1012.8 |
| 20260506204236 | 12 | 23 | 1.6 | 6.4 | 0.00 | 0.89 | 0.89 | 56 | 1012.8 |
| 20260506203905 | 12 | 36 | 1.6 | 8.0 | 0.00 | 0.89 | 0.89 | 56 | 1012.7 |
| 20260506203406 | 13 | 42 | 0.0 | 8.0 | 0.00 | 0.89 | 0.89 | 56 | 1012.6 |
| 20260506203238 | 13 | 56 | 1.6 | 8.0 | 0.00 | 0.89 | 0.89 | 56 | 1012.6 |
| 20260506203138 | 13 | 106 | 1.6 | 8.0 | 0.00 | 0.89 | 0.89 | 55 | 1012.6 |
| 20260506202644 | 13 | 237 | 1.6 | 8.0 | 0.00 | 0.89 | 0.89 | 55 | 1012.7 |
| 20260506202237 | 13 | 319 | 1.6 | 8.0 | 0.00 | 0.89 | 0.89 | 52 | 1012.7 |
| 20260506201906 | 13 | 312 | 1.6 | 11.3 | 0.00 | 0.89 | 0.89 | 46 | 1012.5 |
| 20260506201405 | 13 | 335 | 1.6 | 11.3 | 0.00 | 0.89 | 0.89 | 48 | 1012.3 |
| 20260506201237 | 13 | 339 | 1.6 | 11.3 | 0.00 | 0.89 | 0.89 | 49 | 1012.3 |
| 20260506200906 | 13 | 341 | 1.6 | 11.3 | 0.00 | 0.89 | 0.89 | 47 | 1012.2 |
| 20260506200405 | 13 | 335 | 3.2 | 11.3 | 0.00 | 0.89 | 0.89 | 47 | 1012.0 |
| 20260506200237 | 13 | 337 | 1.6 | 11.3 | 0.00 | 0.89 | 0.89 | 47 | 1012.0 |
| 20260506195906 | 14 | 349 | 1.6 | 6.4 | 0.00 | 0.89 | 0.89 | 48 | 1012.0 |
| 20260506195635 | 14 | 33 | 1.6 | 4.8 | 0.00 | 0.89 | 0.89 | 46 | 1012.0 |
| 20260506195237 | 14 | 41 | 1.6 | 4.8 | 0.00 | 0.89 | 0.89 | 47 | 1011.8 |
| 20260506194908 | 14 | 57 | 1.6 | 4.8 | 0.00 | 0.89 | 0.89 | 46 | 1012.0 |
| 20260506194407 | 15 | 29 | 1.6 | 8.0 | 0.00 | 0.89 | 0.89 | 45 | 1011.8 |
| 20260506194239 | 15 | 358 | 1.6 | 9.7 | 0.00 | 0.89 | 0.89 | 44 | 1011.8 |
| 20260506193907 | 15 | 302 | 1.6 | 11.3 | 0.00 | 0.89 | 0.89 | 45 | 1011.6 |
| 20260506193406 | 15 | 49 | 1.6 | 11.3 | 0.00 | 0.89 | 0.89 | 44 | 1011.5 |
| 20260506193237 | 15 | 40 | 3.2 | 11.3 | 0.00 | 0.89 | 0.89 | 43 | 1011.4 |
| 20260506192906 | 15 | 346 | 3.2 | 11.3 | 0.00 | 0.89 | 0.89 | 44 | 1011.3 |
| 20260506192406 | 15 | 284 | 3.2 | 11.3 | 0.00 | 0.89 | 0.89 | 44 | 1011.2 |
| 20260506192237 | 15 | 302 | 3.2 | 11.3 | 0.00 | 0.89 | 0.89 | 45 | 1011.1 |
| 20260506192143 | 15 | 295 | 1.6 | 9.7 | 0.00 | 0.89 | 0.89 | 44 | 1011.2 |
| 20260506191405 | 15 | 267 | 3.2 | 11.3 | 0.00 | 0.89 | 0.89 | 44 | 1011.0 |
| 20260506191237 | 15 | 269 | 3.2 | 11.3 | 0.00 | 0.89 | 0.89 | 44 | 1011.1 |
| 20260506190906 | 15 | 72 | 3.2 | 12.9 | 0.00 | 0.89 | 0.89 | 44 | 1011.0 |
| 20260506190406 | 15 | 98 | 4.8 | 12.9 | 0.00 | 0.89 | 0.89 | 44 | 1010.9 |
| 20260506190237 | 15 | 104 | 4.8 | 12.9 | 0.00 | 0.89 | 0.89 | 43 | 1010.9 |
| 20260506185906 | 15 | 113 | 4.8 | 12.9 | 0.00 | 0.89 | 0.89 | 43 | 1010.9 |
| 20260506185406 | 15 | 83 | 3.2 | 12.9 | 0.00 | 0.89 | 0.89 | 43 | 1010.9 |
| 20260506185237 | 15 | 59 | 3.2 | 12.9 | 0.00 | 0.89 | 0.89 | 43 | 1010.7 |
| 20260506185140 | 15 | 349 | 3.2 | 11.3 | 0.00 | 0.89 | 0.89 | 43 | 1010.7 |
| 20260506184635 | 15 | 284 | 3.2 | 16.1 | 0.00 | 0.89 | 0.89 | 43 | 1010.9 |
| 20260506184237 | 15 | 277 | 3.2 | 16.1 | 0.00 | 0.89 | 0.89 | 43 | 1010.9 |
| 20260506183905 | 15 | 261 | 3.2 | 16.1 | 0.00 | 0.89 | 0.89 | 42 | 1010.8 |
| 20260506183638 | 15 | 250 | 3.2 | 20.9 | 0.00 | 0.89 | 0.89 | 42 | 1010.7 |
| 20260506183237 | 15 | 232 | 4.8 | 20.9 | 0.00 | 0.89 | 0.89 | 42 | 1010.7 |
| 20260506182906 | 15 | 227 | 4.8 | 20.9 | 0.00 | 0.89 | 0.89 | 41 | 1010.8 |
| 20260506182638 | 15 | 238 | 6.4 | 20.9 | 0.00 | 0.89 | 0.89 | 42 | 1010.5 |
| 20260506182237 | 15 | 243 | 6.4 | 20.9 | 0.00 | 0.89 | 0.89 | 42 | 1010.5 |
| 20260506181905 | 16 | 237 | 6.4 | 22.5 | 0.00 | 0.89 | 0.89 | 40 | 1010.5 |
| 20260506181406 | 15 | 260 | 6.4 | 22.5 | 0.00 | 0.89 | 0.89 | 42 | 1010.4 |
| 20260506181238 | 15 | 274 | 6.4 | 22.5 | 0.00 | 0.89 | 0.89 | 42 | 1010.3 |
| 20260506181138 | 16 | 262 | 6.4 | 22.5 | 0.00 | 0.89 | 0.89 | 43 | 1010.4 |
| 20260506180406 | 16 | 256 | 8.0 | 22.5 | 0.00 | 0.89 | 0.89 | 42 | 1009.9 |
| 20260506180237 | 16 | 257 | 6.4 | 22.5 | 0.00 | 0.89 | 0.89 | 42 | 1010.1 |
| 20260506175906 | 16 | 278 | 4.8 | 22.5 | 0.00 | 0.89 | 0.89 | 42 | 1009.9 |
| 20260506175406 | 15 | 352 | 1.6 | 11.3 | 0.00 | 0.89 | 0.89 | 43 | 1009.9 |
| 20260506175237 | 15 | 341 | 1.6 | 11.3 | 0.00 | 0.89 | 0.89 | 43 | 1009.8 |
| 20260506174905 | 16 | 340 | 1.6 | 11.3 | 0.00 | 0.89 | 0.89 | 43 | 1009.9 |
| 20260506174406 | 16 | 56 | 3.2 | 11.3 | 0.00 | 0.89 | 0.89 | 41 | 1009.7 |
| 20260506174236 | 16 | 53 | 3.2 | 16.1 | 0.00 | 0.89 | 0.89 | 41 | 1009.8 |
| 20260506173906 | 16 | 55 | 3.2 | 19.3 | 0.00 | 0.89 | 0.89 | 40 | 1009.9 |
| 20260506173638 | 16 | 177 | 3.2 | 19.3 | 0.00 | 0.89 | 0.89 | 41 | 1009.9 |
| 20260506173238 | 16 | 234 | 4.8 | 19.3 | 0.00 | 0.89 | 0.89 | 41 | 1010.0 |
| 20260506172906 | 16 | 240 | 6.4 | 22.5 | 0.00 | 0.89 | 0.89 | 40 | 1010.0 |
| 20260506172406 | 17 | 241 | 8.0 | 25.7 | 0.00 | 0.89 | 0.89 | 39 | 1009.8 |
| 20260506172237 | 17 | 227 | 8.0 | 25.7 | 0.00 | 0.89 | 0.89 | 39 | 1009.7 |
| 20260506171907 | 17 | 220 | 9.7 | 27.4 | 0.00 | 0.89 | 0.89 | 38 | 1009.8 |
| 20260506171407 | 17 | 232 | 11.3 | 27.4 | 0.00 | 0.89 | 0.89 | 38 | 1009.8 |
| 20260506171238 | 17 | 236 | 9.7 | 27.4 | 0.00 | 0.89 | 0.89 | 38 | 1009.9 |
| 20260506170907 | 17 | 241 | 9.7 | 27.4 | 0.00 | 0.89 | 0.89 | 39 | 1009.7 |
| 20260506170634 | 17 | 239 | 6.4 | 27.4 | 0.00 | 0.89 | 0.89 | 38 | 1009.6 |
| 20260506170238 | 17 | 245 | 6.4 | 27.4 | 0.00 | 0.89 | 0.89 | 39 | 1009.7 |
| 20260506165907 | 17 | 254 | 4.8 | 27.4 | 0.00 | 0.89 | 0.89 | 39 | 1009.7 |
| 20260506165405 | 17 | 219 | 6.4 | 27.4 | 0.00 | 0.89 | 0.89 | 39 | 1009.7 |
| 20260506165238 | 17 | 131 | 6.4 | 27.4 | 0.00 | 0.89 | 0.89 | 40 | 1009.7 |
| 20260506164906 | 17 | 157 | 9.7 | 27.4 | 0.00 | 0.89 | 0.89 | 40 | 1009.7 |
| 20260506164406 | 18 | 164 | 8.0 | 27.4 | 0.00 | 0.89 | 0.89 | 40 | 1009.4 |
| 20260506164237 | 18 | 180 | 6.4 | 27.4 | 0.00 | 0.89 | 0.89 | 39 | 1009.5 |
| 20260506164142 | 18 | 181 | 4.8 | 25.7 | 0.00 | 0.89 | 0.89 | 42 | 1009.6 |
| 20260506163406 | 18 | 203 | 8.0 | 25.7 | 0.00 | 0.89 | 0.89 | 40 | 1009.5 |
| 20260506163237 | 18 | 200 | 8.0 | 25.7 | 0.00 | 0.89 | 0.89 | 40 | 1009.4 |
| 20260506162906 | 18 | 181 | 6.4 | 25.7 | 0.00 | 0.89 | 0.89 | 40 | 1009.2 |
| 20260506162406 | 18 | 157 | 4.8 | 11.3 | 0.00 | 0.89 | 0.89 | 52 | 1009.2 |
| 20260506162237 | 18 | 169 | 4.8 | 11.3 | 0.00 | 0.89 | 0.89 | 57 | 1009.2 |
| 20260506162136 | 18 | 199 | 4.8 | 11.3 | 0.00 | 0.89 | 0.89 | 56 | 1009.2 |
| 20260506161407 | 18 | 142 | 3.2 | 11.3 | 0.00 | 0.89 | 0.89 | 57 | 1009.0 |
| 20260506161238 | 18 | 66 | 1.6 | 11.3 | 0.00 | 0.89 | 0.89 | 57 | 1009.1 |
| 20260506160907 | 18 | 23 | 3.2 | 12.9 | 0.00 | 0.89 | 0.89 | 58 | 1009.1 |
| 20260506160407 | 18 | 45 | 4.8 | 12.9 | 0.00 | 0.89 | 0.89 | 58 | 1008.9 |
| 20260506160239 | 18 | 69 | 4.8 | 12.9 | 0.00 | 0.89 | 0.89 | 58 | 1008.9 |
| 20260506155907 | 18 | 115 | 4.8 | 12.9 | 0.00 | 0.89 | 0.89 | 57 | 1008.8 |
| 20260506155643 | 18 | 118 | 4.8 | 12.9 | 0.00 | 0.89 | 0.89 | 57 | 1008.9 |
| 20260506155240 | 18 | 106 | 4.8 | 12.9 | 0.00 | 0.89 | 0.89 | 55 | 1008.9 |
| 20260506154907 | 18 | 54 | 4.8 | 12.9 | 0.00 | 0.89 | 0.89 | 57 | 1009.0 |
| 20260506154407 | 18 | 27 | 3.2 | 12.9 | 0.00 | 0.89 | 0.89 | 56 | 1009.1 |
| 20260506154238 | 18 | 48 | 4.8 | 12.9 | 0.00 | 0.89 | 0.89 | 54 | 1009.1 |
| 20260506153906 | 18 | 90 | 4.8 | 12.9 | 0.00 | 0.89 | 0.89 | 43 | 1009.0 |
| 20260506153645 | 18 | 100 | 4.8 | 12.9 | 0.00 | 0.89 | 0.89 | 44 | 1009.0 |
| 20260506153237 | 18 | 90 | 4.8 | 12.9 | 0.00 | 0.89 | 0.89 | 44 | 1009.1 |
| 20260506152905 | 18 | 68 | 3.2 | 11.3 | 0.00 | 0.89 | 0.89 | 46 | 1008.9 |
| 20260506152405 | 18 | 52 | 3.2 | 11.3 | 0.00 | 0.89 | 0.89 | 50 | 1009.2 |
| 20260506152237 | 18 | 59 | 4.8 | 11.3 | 0.00 | 0.89 | 0.89 | 49 | 1009.2 |
| 20260506151909 | 18 | 98 | 3.2 | 11.3 | 0.00 | 0.89 | 0.89 | 54 | 1009.0 |
| 20260506151905 | 19 | 195 | 3.2 | 11.3 | 0.00 | 0.89 | 0.89 | 50 | 1009.3 |
| 20260506151237 | 20 | 210 | 3.2 | 11.3 | 0.00 | 0.89 | 0.89 | 40 | 1009.4 |
| 20260506150904 | 20 | 222 | 3.2 | 11.3 | 0.00 | 0.89 | 0.89 | 36 | 1009.4 |
| 20260506150423 | 19 | 226 | 4.8 | 19.3 | 0.00 | 0.89 | 0.89 | 37 | 1009.3 |
| 20260506150417 | 19 | 226 | 4.8 | 14.5 | 0.00 | 0.89 | 0.89 | 36 | 1009.4 |
| 20260506150402 | 19 | 227 | 4.8 | 14.5 | 0.00 | 0.89 | 0.89 | 36 | 1009.3 |
| 20260506145400 | 19 | 235 | 6.4 | 19.3 | 0.00 | 0.89 | 0.89 | 37 | 1009.2 |
| 20260506145237 | 19 | 231 | 6.4 | 24.1 | 0.00 | 0.89 | 0.89 | 36 | 1009.2 |
| 20260506144901 | 19 | 230 | 6.4 | 24.1 | 0.00 | 0.89 | 0.89 | 36 | 1009.2 |
| 20260506144400 | 19 | 229 | 8.0 | 24.1 | 0.00 | 0.89 | 0.89 | 38 | 1009.2 |
| 20260506144237 | 19 | 228 | 8.0 | 24.1 | 0.00 | 0.89 | 0.89 | 38 | 1009.2 |
| 20260506144137 | 18 | 231 | 9.7 | 25.7 | 0.00 | 0.89 | 0.89 | 37 | 1009.0 |
| 20260506143400 | 18 | 248 | 9.7 | 25.7 | 0.00 | 0.89 | 0.89 | 40 | 1009.1 |
| 20260506143238 | 18 | 253 | 9.7 | 25.7 | 0.00 | 0.89 | 0.89 | 40 | 1009.3 |
| 20260506142858 | 18 | 249 | 9.7 | 40.2 | 0.00 | 0.89 | 0.89 | 40 | 1009.1 |
| 20260506142357 | 17 | 234 | 11.3 | 40.2 | 0.00 | 0.89 | 0.89 | 41 | 1009.0 |
| 20260506142236 | 17 | 232 | 12.9 | 40.2 | 0.00 | 0.89 | 0.89 | 41 | 1009.3 |
| 20260506141855 | 17 | 232 | 14.5 | 40.2 | 0.00 | 0.89 | 0.89 | 39 | 1009.3 |
| 20260506141356 | 18 | 237 | 14.5 | 40.2 | 0.00 | 0.89 | 0.89 | 37 | 1009.5 |
| 20260506141238 | 18 | 233 | 14.5 | 40.2 | 0.00 | 0.89 | 0.89 | 39 | 1009.4 |
| 20260506140855 | 18 | 239 | 11.3 | 22.5 | 0.00 | 0.89 | 0.89 | 40 | 1009.4 |
| 20260506140356 | 18 | 244 | 9.7 | 22.5 | 0.00 | 0.89 | 0.89 | 41 | 1009.5 |
| 20260506140238 | 18 | 251 | 9.7 | 22.5 | 0.00 | 0.89 | 0.89 | 41 | 1009.6 |
| 20260506135855 | 18 | 256 | 8.0 | 19.3 | 0.00 | 0.89 | 0.89 | 42 | 1009.6 |
| 20260506135356 | 18 | 257 | 8.0 | 24.1 | 0.00 | 0.89 | 0.89 | 41 | 1009.6 |
| 20260506135237 | 19 | 259 | 8.0 | 24.1 | 0.00 | 0.89 | 0.89 | 43 | 1009.6 |
| 20260506134855 | 19 | 251 | 9.7 | 24.1 | 0.00 | 0.89 | 0.89 | 40 | 1009.5 |
| 20260506134356 | 19 | 245 | 11.3 | 24.1 | 0.00 | 0.89 | 0.89 | 39 | 1009.5 |
| 20260506134237 | 19 | 241 | 11.3 | 24.1 | 0.00 | 0.89 | 0.89 | 37 | 1009.4 |
| 20260506133857 | 19 | 239 | 11.3 | 24.1 | 0.00 | 0.89 | 0.89 | 37 | 1009.3 |
| 20260506133355 | 20 | 239 | 9.7 | 20.9 | 0.00 | 0.89 | 0.89 | 38 | 1009.1 |
| 20260506133241 | 20 | 242 | 8.0 | 20.9 | 0.00 | 0.89 | 0.89 | 38 | 1009.1 |
| 20260506132855 | 20 | 246 | 9.7 | 20.9 | 0.00 | 0.89 | 0.89 | 38 | 1009.2 |
| 20260506132356 | 20 | 231 | 8.0 | 17.7 | 0.00 | 0.89 | 0.89 | 39 | 1009.3 |
| 20260506132237 | 20 | 228 | 6.4 | 17.7 | 0.00 | 0.89 | 0.89 | 39 | 1009.3 |
| 20260506131855 | 20 | 218 | 4.8 | 17.7 | 0.00 | 0.89 | 0.89 | 40 | 1009.5 |
| 20260506131356 | 19 | 229 | 6.4 | 17.7 | 0.00 | 0.89 | 0.89 | 39 | 1009.5 |
| 20260506131236 | 19 | 227 | 8.0 | 19.3 | 0.00 | 0.89 | 0.89 | 38 | 1009.4 |
| 20260506130855 | 18 | 233 | 9.7 | 19.3 | 0.00 | 0.89 | 0.89 | 43 | 1009.5 |
| 20260506130355 | 19 | 236 | 8.0 | 19.3 | 0.00 | 0.89 | 0.89 | 44 | 1009.7 |
| 20260506130238 | 19 | 238 | 9.7 | 19.3 | 0.00 | 0.89 | 0.89 | 46 | 1009.7 |
| 20260506125855 | 18 | 212 | 8.0 | 19.3 | 0.00 | 0.89 | 0.89 | 46 | 1009.5 |
| 20260506125356 | 18 | 95 | 4.8 | 19.3 | 0.00 | 0.89 | 0.89 | 59 | 1009.7 |
| 20260506125235 | 18 | 80 | 4.8 | 12.9 | 0.00 | 0.89 | 0.89 | 58 | 1009.4 |
| 20260506124855 | 17 | 67 | 3.2 | 12.9 | 0.00 | 0.89 | 0.89 | 64 | 1009.4 |
| 20260506124356 | 17 | 119 | 4.8 | 12.9 | 0.00 | 0.89 | 0.89 | 65 | 1009.4 |
| 20260506124235 | 17 | 130 | 4.8 | 12.9 | 0.00 | 0.89 | 0.89 | 66 | 1009.4 |
| 20260506123856 | 17 | 131 | 6.4 | 12.9 | 0.00 | 0.89 | 0.89 | 65 | 1009.3 |
| 20260506123356 | 17 | 101 | 6.4 | 12.9 | 0.00 | 0.89 | 0.89 | 66 | 1009.2 |
| 20260506123235 | 16 | 35 | 6.4 | 16.1 | 0.00 | 0.89 | 0.89 | 66 | 1009.3 |
| 20260506122855 | 16 | 0 | 4.8 | 16.1 | 0.00 | 0.89 | 0.89 | 66 | 1009.5 |
| 20260506122356 | 16 | 19 | 3.2 | 16.1 | 0.00 | 0.89 | 0.89 | 65 | 1009.1 |
| 20260506122233 | 16 | 23 | 3.2 | 16.1 | 0.00 | 0.89 | 0.89 | 65 | 1009.0 |
| 20260506121856 | 16 | 60 | 4.8 | 16.1 | 0.00 | 0.89 | 0.89 | 65 | 1009.0 |
| 20260506121356 | 16 | 108 | 4.8 | 16.1 | 0.00 | 0.89 | 0.89 | 66 | 1008.8 |
| 20260506121233 | 16 | 127 | 4.8 | 14.5 | 0.00 | 0.89 | 0.89 | 65 | 1008.9 |
| 20260506120856 | 16 | 199 | 4.8 | 14.5 | 0.00 | 0.89 | 0.89 | 66 | 1009.0 |
| 20260506120356 | 16 | 102 | 6.4 | 14.5 | 0.00 | 0.89 | 0.89 | 65 | 1009.1 |
| 20260506120233 | 16 | 98 | 4.8 | 14.5 | 0.00 | 0.89 | 0.89 | 65 | 1008.9 |
| 20260506115856 | 17 | 96 | 4.8 | 24.1 | 0.00 | 0.89 | 0.89 | 64 | 1008.9 |
| 20260506115356 | 17 | 69 | 4.8 | 24.1 | 0.00 | 0.89 | 0.89 | 63 | 1009.0 |
| 20260506115232 | 17 | 54 | 6.4 | 24.1 | 0.00 | 0.89 | 0.89 | 64 | 1009.0 |
| 20260506114855 | 16 | 34 | 9.7 | 24.1 | 0.00 | 0.89 | 0.89 | 64 | 1008.9 |
| 20260506114626 | 16 | 10 | 11.3 | 24.1 | 0.00 | 0.89 | 0.89 | 64 | 1008.6 |
| 20260506114232 | 16 | 14 | 9.7 | 24.1 | 0.00 | 0.89 | 0.89 | 65 | 1008.6 |
| 20260506113855 | 17 | 45 | 8.0 | 24.1 | 0.00 | 0.89 | 0.89 | 65 | 1008.4 |
| 20260506113356 | 17 | 79 | 6.4 | 24.1 | 0.00 | 0.89 | 0.89 | 63 | 1008.6 |
| 20260506113233 | 17 | 89 | 8.0 | 24.1 | 0.00 | 0.89 | 0.89 | 63 | 1008.7 |
| 20260506112857 | 17 | 312 | 6.4 | 24.1 | 0.00 | 0.89 | 0.89 | 63 | 1008.6 |
| 20260506112356 | 17 | 79 | 8.0 | 24.1 | 0.00 | 0.89 | 0.89 | 64 | 1008.3 |
| 20260506112232 | 17 | 81 | 6.4 | 24.1 | 0.00 | 0.89 | 0.89 | 65 | 1008.4 |
| 20260506111856 | 17 | 98 | 6.4 | 12.9 | 0.00 | 0.89 | 0.89 | 63 | 1008.8 |
| 20260506111356 | 17 | 140 | 4.8 | 14.5 | 0.00 | 0.89 | 0.89 | 61 | 1008.8 |
| 20260506111232 | 17 | 112 | 4.8 | 14.5 | 0.00 | 0.89 | 0.89 | 63 | 1008.6 |
| 20260506110856 | 17 | 94 | 4.8 | 14.5 | 0.00 | 0.89 | 0.89 | 64 | 1008.7 |
| 20260506110356 | 17 | 102 | 6.4 | 14.5 | 0.00 | 0.89 | 0.89 | 63 | 1008.6 |
| 20260506110237 | 17 | 127 | 4.8 | 14.5 | 0.00 | 0.89 | 0.89 | 64 | 1008.7 |
| 20260506105909 | 17 | 169 | 3.2 | 6.4 | 0.00 | 0.89 | 0.89 | 61 | 1008.9 |
| 20260506105904 | 17 | 138 | 4.8 | 14.5 | 0.00 | 0.89 | 0.89 | 62 | 1009.0 |
| 20260506105232 | 17 | 176 | 3.2 | 6.4 | 0.00 | 0.89 | 0.89 | 61 | 1008.9 |
| 20260506104856 | 17 | 210 | 1.6 | 6.4 | 0.00 | 0.89 | 0.89 | 62 | 1009.1 |
| 20260506104355 | 17 | 231 | 3.2 | 6.4 | 0.00 | 0.89 | 0.89 | 61 | 1009.1 |
| 20260506104233 | 17 | 231 | 1.6 | 6.4 | 0.00 | 0.89 | 0.89 | 62 | 1009.3 |
| 20260506103856 | 17 | 235 | 3.2 | 6.4 | 0.00 | 0.89 | 0.89 | 62 | 1009.1 |
| 20260506103357 | 16 | 204 | 4.8 | 6.4 | 0.00 | 0.89 | 0.89 | 62 | 1009.1 |
| 20260506103232 | 16 | 191 | 4.8 | 6.4 | 0.00 | 0.89 | 0.89 | 62 | 1009.1 |
| 20260506102856 | 16 | 163 | 6.4 | 6.4 | 0.00 | 0.89 | 0.89 | 66 | 1009.1 |
| 20260506102400 | 16 | 148 | 3.2 | 6.4 | 0.00 | 0.89 | 0.89 | 68 | 1009.3 |
| 20260506102232 | 16 | 164 | 3.2 | 6.4 | 0.00 | 0.89 | 0.89 | 68 | 1009.2 |
| 20260506101856 | 16 | 281 | 3.2 | 6.4 | 0.00 | 0.89 | 0.89 | 68 | 1009.4 |
| 20260506101353 | 15 | 263 | 3.2 | 6.4 | 0.00 | 0.89 | 0.89 | 68 | 1009.2 |
| 20260506101231 | 15 | 261 | 3.2 | 6.4 | 0.00 | 0.89 | 0.89 | 67 | 1009.2 |
| 20260506101126 | 15 | 247 | 3.2 | 11.3 | 0.00 | 0.89 | 0.89 | 69 | 1009.2 |
| 20260506100354 | 15 | 241 | 3.2 | 11.3 | 0.00 | 0.89 | 0.89 | 68 | 1009.2 |
| 20260506100231 | 15 | 247 | 4.8 | 11.3 | 0.00 | 0.89 | 0.89 | 71 | 1009.2 |
| 20260506095852 | 15 | 243 | 4.8 | 11.3 | 0.00 | 0.89 | 0.89 | 70 | 1009.3 |
| 20260506095231 | 15 | 185 | 3.2 | 11.3 | 0.00 | 0.89 | 0.89 | 70 | 1009.5 |
| 20260506094850 | 15 | 113 | 1.6 | 8.0 | 0.00 | 0.89 | 0.89 | 71 | 1009.3 |
| 20260506094349 | 15 | 112 | 0.0 | 6.4 | 0.00 | 0.89 | 0.89 | 70 | 1009.5 |
| 20260506094231 | 15 | 115 | 0.0 | 6.4 | 0.00 | 0.89 | 0.89 | 70 | 1009.5 |
| 20260506093845 | 15 | 97 | 1.6 | 6.4 | 0.00 | 0.91 | 0.89 | 70 | 1009.6 |
| 20260506093618 | 15 | 88 | 3.2 | 6.4 | 0.00 | 0.91 | 0.89 | 72 | 1009.7 |
| 20260506093231 | 15 | 89 | 3.2 | 8.0 | 0.00 | 0.91 | 0.89 | 70 | 1009.8 |
| 20260506092847 | 15 | 168 | 1.6 | 8.0 | 0.00 | 0.91 | 0.89 | 71 | 1009.7 |
| 20260506092346 | 15 | 240 | 3.2 | 8.0 | 0.00 | 0.91 | 0.89 | 72 | 1009.7 |
| 20260506092231 | 14 | 244 | 3.2 | 8.0 | 0.00 | 0.91 | 0.89 | 74 | 1009.8 |
| 20260506091846 | 14 | 245 | 3.2 | 8.0 | 0.00 | 0.91 | 0.89 | 74 | 1009.8 |
| 20260506091346 | 15 | 249 | 3.2 | 8.0 | 0.00 | 0.91 | 0.89 | 72 | 1009.8 |
| 20260506091230 | 14 | 255 | 3.2 | 4.8 | 0.00 | 0.91 | 0.89 | 72 | 1009.9 |
| 20260506090854 | 13 | 271 | 4.8 | 4.8 | 0.00 | 0.91 | 0.89 | 79 | 1009.7 |
| 20260506090847 | 14 | 262 | 3.2 | 4.8 | 0.00 | 0.91 | 0.89 | 75 | 1009.8 |
| 20260506090231 | 13 | 271 | 4.8 | 4.8 | 0.00 | 0.91 | 0.89 | 79 | 1009.7 |
| 20260506090121 | 13 | 270 | 4.8 | 4.8 | 0.00 | 0.91 | 0.89 | 79 | 1009.8 |
| 20260506085346 | 13 | 245 | 3.2 | 6.4 | 0.00 | 0.91 | 0.89 | 79 | 1009.7 |
| 20260506085231 | 13 | 241 | 3.2 | 6.4 | 0.00 | 0.91 | 0.89 | 79 | 1009.7 |
| 20260506084845 | 13 | 232 | 1.6 | 6.4 | 0.00 | 0.91 | 0.89 | 79 | 1009.7 |
| 20260506084619 | 12 | 238 | 1.6 | 6.4 | 0.00 | 0.91 | 0.89 | 81 | 1009.6 |
| 20260506084229 | 12 | 238 | 1.6 | 6.4 | 0.03 | 0.91 | 0.89 | 81 | 1009.6 |
| 20260506083846 | 12 | 234 | 3.2 | 9.7 | 0.03 | 0.91 | 0.89 | 82 | 1009.7 |
| 20260506083346 | 12 | 239 | 3.2 | 9.7 | 0.05 | 0.91 | 0.89 | 84 | 1009.6 |
| 20260506083232 | 12 | 241 | 3.2 | 9.7 | 0.05 | 0.91 | 0.89 | 85 | 1009.8 |
| 20260506082846 | 12 | 245 | 4.8 | 9.7 | 0.05 | 0.91 | 0.89 | 85 | 1009.8 |
| 20260506082345 | 11 | 240 | 4.8 | 9.7 | 0.05 | 0.91 | 0.89 | 86 | 1009.8 |
| 20260506082229 | 11 | 241 | 4.8 | 9.7 | 0.05 | 0.91 | 0.89 | 86 | 1009.7 |
| 20260506081845 | 11 | 243 | 4.8 | 9.7 | 0.05 | 0.91 | 0.89 | 88 | 1009.8 |
| 20260506081346 | 11 | 248 | 4.8 | 9.7 | 0.05 | 0.91 | 0.89 | 88 | 1009.7 |
| 20260506081228 | 11 | 246 | 4.8 | 9.7 | 0.05 | 0.91 | 0.89 | 88 | 1009.7 |
| 20260506080845 | 11 | 241 | 4.8 | 8.0 | 0.05 | 0.91 | 0.89 | 90 | 1009.7 |
| 20260506080353 | 11 | 239 | 3.2 | 8.0 | 0.05 | 0.91 | 0.89 | 89 | 1010.0 |
| 20260506080348 | 11 | 236 | 3.2 | 8.0 | 0.05 | 0.91 | 0.89 | 89 | 1009.8 |
| 20260506080341 | 11 | 237 | 3.2 | 8.0 | 0.05 | 0.91 | 0.89 | 89 | 1009.9 |
| 20260506073348 | 11 | 9 | 0.0 | 3.2 | 0.03 | 0.89 | 0.86 | 89 | 1009.5 |
| 20260506073231 | 11 | 7 | 0.0 | 3.2 | 0.03 | 0.89 | 0.86 | 89 | 1009.5 |
| 20260506072844 | 10 | 357 | 1.6 | 3.2 | 0.03 | 0.89 | 0.86 | 89 | 1009.4 |
| 20260506072344 | 11 | 308 | 0.0 | 3.2 | 0.00 | 0.86 | 0.84 | 89 | 1009.6 |
| 20260506072229 | 11 | 294 | 0.0 | 3.2 | 0.00 | 0.86 | 0.84 | 89 | 1009.6 |
| 20260506072113 | 11 | 268 | 0.0 | 3.2 | 0.00 | 0.86 | 0.84 | 89 | 1009.6 |
| 20260506071401 | 11 | 193 | 0.0 | 4.8 | 0.00 | 0.86 | 0.84 | 89 | 1009.5 |
| 20260506071356 | 11 | 239 | 0.0 | 3.2 | 0.00 | 0.86 | 0.84 | 89 | 1009.6 |
| 20260506071340 | 11 | 227 | 0.0 | 3.2 | 0.00 | 0.86 | 0.84 | 89 | 1009.6 |
| 20260506070342 | 11 | 189 | 0.0 | 4.8 | 0.00 | 0.86 | 0.84 | 90 | 1009.8 |
| 20260506070229 | 11 | 190 | 0.0 | 4.8 | 0.00 | 0.86 | 0.84 | 90 | 1009.7 |
| 20260506062341 | 10 | 136 | 1.6 | 3.2 | 0.05 | 0.86 | 0.84 | 93 | 1009.6 |
| 20260506062228 | 10 | 139 | 1.6 | 3.2 | 0.08 | 0.89 | 0.84 | 92 | 1009.7 |
| 20260506061841 | 10 | 150 | 0.0 | 4.8 | 0.10 | 0.89 | 0.84 | 92 | 1009.7 |
| 20260506061343 | 10 | 134 | 0.0 | 4.8 | 0.15 | 0.89 | 0.84 | 92 | 1009.5 |
| 20260506061231 | 10 | 129 | 0.0 | 4.8 | 0.15 | 0.89 | 0.84 | 93 | 1009.6 |
| 20260506061108 | 10 | 135 | 0.0 | 4.8 | 0.18 | 0.89 | 0.84 | 93 | 1009.6 |
| 20260506060338 | 10 | 142 | 1.6 | 4.8 | 0.23 | 0.89 | 0.84 | 92 | 1009.7 |
| 20260506060227 | 10 | 151 | 1.6 | 4.8 | 0.25 | 0.89 | 0.84 | 93 | 1009.7 |
| 20260506051339 | 10 | 39 | 4.8 | 14.5 | 0.51 | 0.74 | 0.71 | 92 | 1009.6 |
| 20260506051228 | 10 | 32 | 6.4 | 14.5 | 0.51 | 0.74 | 0.71 | 92 | 1009.6 |
| 20260506050837 | 10 | 33 | 6.4 | 14.5 | 0.51 | 0.71 | 0.66 | 93 | 1009.4 |
| 20260506050336 | 10 | 62 | 3.2 | 14.5 | 0.43 | 0.64 | 0.61 | 93 | 1009.4 |
| 20260506050227 | 10 | 80 | 3.2 | 14.5 | 0.43 | 0.61 | 0.61 | 93 | 1009.5 |
| 20260506044835 | 10 | 125 | 3.2 | 9.7 | 0.33 | 0.51 | 0.48 | 93 | 1009.6 |
| 20260506044355 | 10 | 112 | 3.2 | 8.0 | 0.28 | 0.43 | 0.41 | 92 | 1009.5 |
| 20260506044346 | 10 | 123 | 3.2 | 9.7 | 0.33 | 0.48 | 0.43 | 92 | 1009.6 |
| 20260506044332 | 10 | 122 | 3.2 | 8.0 | 0.33 | 0.48 | 0.43 | 92 | 1009.7 |
| 20260506043605 | 10 | 130 | 1.6 | 9.7 | 0.23 | 0.41 | 0.36 | 92 | 1009.6 |
| 20260506043228 | 10 | 120 | 1.6 | 9.7 | 0.23 | 0.41 | 0.33 | 92 | 1009.7 |
| 20260506043112 | 10 | 132 | 1.6 | 9.7 | 0.18 | 0.38 | 0.30 | 92 | 1009.6 |
| 20260506042349 | 10 | 62 | 3.2 | 12.9 | 0.10 | 0.36 | 0.23 | 93 | 1009.7 |
| 20260506042342 | 10 | 68 | 3.2 | 9.7 | 0.15 | 0.38 | 0.25 | 92 | 1009.7 |
| 20260506042328 | 10 | 76 | 3.2 | 9.7 | 0.13 | 0.38 | 0.23 | 93 | 1009.7 |